GW5201 Weather Reports


time (UTC)temp
F
wind
direction
speed
knots
gust
knots
rain 1hr
in
rain 24hr
in
rain mn
in
humidity
%
barometer
mb
20260505040903 60 169 0.9 3.5 0.00 0.00 0.00 60 1011.0
20260505040004 60 140 0.0 2.6 0.00 0.00 0.00 59 1011.0
20260505035403 60 149 0.0 1.7 0.00 0.00 0.00 59 1011.0
20260505034503 61 154 0.0 1.7 0.00 0.00 0.00 57 1011.0
20260505033603 61 147 0.0 1.7 0.00 0.00 0.00 56 1011.0
20260505032703 62 123 0.9 2.6 0.00 0.00 0.00 56 1011.1
20260505031803 62 111 0.9 4.3 0.00 0.00 0.00 56 1011.0
20260505030903 62 144 0.9 4.3 0.00 0.00 0.00 56 1011.2
20260505030003 62 148 0.9 4.3 0.00 0.00 0.00 56 1011.1
20260505025403 61 136 0.9 3.5 0.00 0.00 0.00 56 1011.1
20260505024503 61 123 0.9 3.5 0.00 0.00 0.00 58 1011.3
20260505023603 60 126 0.0 2.6 0.00 0.00 0.00 60 1011.4
20260505022703 60 236 0.0 2.6 0.00 0.00 0.00 61 1011.6
20260505021803 60 71 0.0 0.9 0.00 0.00 0.00 59 1011.6
20260505020903 61 114 0.0 1.7 0.00 0.00 0.00 58 1011.5
20260505020003 61 0 0.0 0.0 0.00 0.00 0.00 56 1011.5
20260505015403 62 104 0.0 1.7 0.00 0.00 0.00 57 1011.5
20260505014503 62 111 0.0 0.9 0.00 0.00 0.00 56 1011.4
20260505013603 62 59 0.0 0.9 0.00 0.00 0.00 57 1011.4
20260505012703 62 50 0.0 1.7 0.00 0.00 0.00 55 1011.4
20260505011803 63 66 0.0 1.7 0.00 0.00 0.00 54 1011.4
20260505010903 64 137 0.0 1.7 0.00 0.00 0.00 52 1011.2
20260505010003 64 137 0.0 2.6 0.00 0.00 0.00 52 1011.1
20260505005403 64 165 0.0 1.7 0.00 0.00 0.00 50 1011.0
20260505004503 64 108 0.0 2.6 0.00 0.00 0.00 50 1011.1
20260505003816 64 103 0.0 2.6 0.00 0.00 0.00 50 1010.9
20260505002703 65 62 0.0 1.7 0.00 0.00 0.00 47 1010.8
20260505001803 65 122 0.0 0.9 0.00 0.00 0.00 46 1010.6
20260505001118 66 125 0.0 1.7 0.00 0.00 0.00 45 1010.7
20260505000003 67 209 0.0 0.9 0.00 0.00 0.00 44 1010.5
20260504235617 67 137 0.0 2.6 0.00 0.00 0.00 44 1010.5
20260504234503 68 105 0.9 3.5 0.00 0.00 0.00 43 1010.4
20260504233603 68 170 0.9 3.5 0.00 0.00 0.00 44 1010.4
20260504232703 68 82 0.0 1.7 0.00 0.00 0.00 42 1010.4
20260504231803 69 103 0.9 5.2 0.00 0.00 0.00 42 1010.4
20260504230903 70 119 1.7 5.2 0.00 0.00 0.00 39 1010.4
20260504230003 69 112 0.9 4.3 0.00 0.00 0.00 40 1010.4
20260504225403 70 93 0.9 2.6 0.00 0.00 0.00 43 1010.4
20260504224503 70 92 0.9 5.2 0.00 0.00 0.00 40 1010.4
20260504223603 70 131 0.9 5.2 0.00 0.00 0.00 38 1010.4
20260504222919 70 123 0.9 4.3 0.00 0.00 0.00 39 1010.5
20260504221803 70 108 1.7 4.3 0.00 0.00 0.00 38 1010.5
20260504220903 71 126 1.7 5.2 0.00 0.00 0.00 37 1010.5
20260504220003 71 135 1.7 6.1 0.00 0.00 0.00 37 1010.5
20260504215616 71 123 1.7 5.2 0.00 0.00 0.00 37 1010.6
20260504214503 71 124 1.7 7.0 0.00 0.00 0.00 36 1010.6
20260504213819 71 118 1.7 7.0 0.00 0.00 0.00 37 1010.6
20260504212703 71 99 1.7 6.1 0.00 0.00 0.00 36 1010.7
20260504211803 71 129 2.6 8.7 0.00 0.00 0.00 36 1010.6
20260504210903 71 129 2.6 7.0 0.00 0.00 0.00 35 1010.6
20260504210003 71 89 1.7 6.1 0.00 0.00 0.00 36 1010.6
20260504205403 71 142 1.7 6.1 0.00 0.00 0.00 36 1010.6
20260504204503 72 123 1.7 7.0 0.00 0.00 0.00 35 1010.6
20260504203603 72 104 1.7 5.2 0.00 0.00 0.00 36 1010.7
20260504202703 72 82 1.7 7.0 0.00 0.00 0.00 35 1010.8
20260504201803 72 132 2.6 7.8 0.00 0.00 0.00 36 1010.9
20260504200903 72 106 2.6 7.0 0.00 0.00 0.00 38 1011.0
20260504200003 72 129 2.6 8.7 0.00 0.00 0.00 35 1011.0
20260504195403 73 110 2.6 7.8 0.00 0.00 0.00 35 1011.1
20260504194503 73 50 1.7 7.8 0.00 0.00 0.00 35 1011.2
20260504193603 74 73 1.7 5.2 0.00 0.00 0.00 34 1011.1
20260504192703 74 106 1.7 6.1 0.00 0.00 0.00 34 1011.3
20260504192017 73 121 2.6 7.0 0.00 0.00 0.00 37 1011.5
20260504190903 73 129 1.7 8.7 0.00 0.00 0.00 33 1011.6
20260504190003 73 147 2.6 10.4 0.00 0.00 0.00 35 1011.5
20260504185403 73 133 2.6 10.4 0.00 0.00 0.00 32 1011.6
20260504184503 72 126 3.5 9.6 0.00 0.00 0.00 34 1011.7
20260504183818 72 89 3.5 9.6 0.00 0.00 0.00 35 1011.7
20260504182917 72 57 1.7 9.6 0.00 0.00 0.00 37 1012.0
20260504182017 73 64 1.7 9.6 0.00 0.00 0.00 32 1012.0
20260504181116 73 118 1.7 5.2 0.00 0.00 0.00 33 1012.2
20260504180003 73 121 1.7 7.0 0.00 0.00 0.00 34 1012.3
20260504175403 72 84 2.6 7.8 0.00 0.00 0.00 35 1012.3
20260504174503 72 110 1.7 7.8 0.00 0.00 0.00 35 1012.4
20260504173603 72 86 1.7 6.1 0.00 0.00 0.00 37 1012.6
20260504172703 72 124 1.7 7.0 0.00 0.00 0.00 38 1012.8
20260504172016 71 121 2.6 7.0 0.00 0.00 0.00 38 1012.7
20260504170903 71 142 2.6 9.6 0.00 0.00 0.00 34 1012.8
20260504151119 67 0 0.0 0.0 0.00 0.00 0.00 40 1014.2
20260504140903 64 0 0.0 0.0 0.00 0.00 0.00 50 1014.4
20260504100216 43 332 0.0 0.0 0.00 0.00 0.00 84 1015.7
20260504081803 46 37 0.0 0.9 0.00 0.00 0.00 75 1015.5
20260504080903 46 0 0.0 0.0 0.00 0.00 0.00 75 1015.5
20260504050003 45 0 0.0 0.0 0.00 0.00 0.00 65 1015.4
20260504045403 46 8 0.0 0.0 0.00 0.00 0.00 67 1015.4
20260504044503 46 8 0.0 0.9 0.00 0.00 0.00 64 1015.2
20260504043603 46 0 0.0 0.0 0.00 0.00 0.00 64 1015.1
20260504042703 45 0 0.0 0.0 0.00 0.00 0.00 65 1015.0
20260504041803 45 0 0.0 0.0 0.00 0.00 0.00 68 1014.9